Lid_Strength_Index
-2 -2 -2 -1 -2 -2 -1 0 -0 -1 -1 -0 1 0 1 2 1 3 7 5 3 -0 1 5 6 7 8 9 8 10 14 16 14 13 12 9 9 7 6 7 6 5 5 4 2
-2 -2 -2 -2 -2 -1 -2 -1 -0 -1 -1 -1 0 1 1 2 5 7 3 -0 1 -0 6 6 7 6 9 10 9 13 15 14 12 12 12 9 8 7 7 8 8 7 4 3 3
-2 -2 -2 -1 -1 -1 -2 -1 -1 -0 -1 -1 -1 0 1 3 8 9 2 1 0 1 5 5 5 6 9 10 11 12 15 13 12 10 10 10 9 8 8 10 7 8 6 4 4
-2 -2 -2 -2 -1 -1 -1 -1 -1 -0 -1 -1 -0 -0 1 5 16 5 1 2 1 2 5 6 6 8 9 10 9 13 11 11 10 10 10 11 10 9 8 7 6 5 4 4 5
-2 -1 -2 -2 -2 -1 -1 -1 -0 -1 0 -1 -1 -0 3 8 9 4 1 1 3 4 8 8 8 9 10 10 10 11 10 10 9 10 11 10 11 11 9 7 5 4 4 5 4
-2 -2 -1 -2 -2 -1 -1 -1 -1 -0 -0 0 -1 -1 5 10 4 4 4 4 5 7 8 9 9 8 9 10 10 10 9 9 8 9 9 11 12 11 9 7 5 5 5 5 4
-2 -2 -2 -1 -1 -1 -1 -1 -1 -0 -0 0 0 1 5 7 4 4 4 4 4 7 9 8 8 8 9 11 8 9 11 10 9 9 9 8 12 12 9 7 6 6 6 5 4
-2 -2 -2 -1 -1 -1 -1 -1 -1 0 -1 -1 -0 2 6 2 2 4 4 6 4 3 5 6 5 7 9 9 10 11 12 14 11 9 9 10 14 11 9 9 9 7 6 5 5
-2 -2 -2 -2 -1 -1 -1 -1 -1 -1 -1 -1 1 3 7 1 4 3 5 6 5 5 4 4 5 9 9 13 15 14 17 15 14 10 10 11 13 10 10 9 9 9 8 7 5
-2 -2 -2 -2 -2 -1 -1 -1 -1 -1 0 0 1 6 5 7 4 4 4 6 7 6 7 7 7 11 13 15 20 18 17 16 16 14 11 12 12 11 10 11 11 11 10 9 8
-2 -1 -1 -2 -2 -1 -0 2 4 5 3 6 6 6 5 4 3 5 4 6 7 9 13 10 13 14 12 13 14 15 16 17 16 13 12 13 13 11 10 12 11 11 12 10 10
-2 -1 -1 -2 -2 -2 1 5 4 3 8 4 5 5 3 4 6 5 4 8 9 12 11 13 15 12 10 9 11 13 16 16 14 12 13 14 15 13 12 12 11 11 11 11 11
-1 -1 -1 -1 -2 0 2 3 -0 1 8 7 5 5 5 4 7 6 6 8 9 11 10 14 14 11 11 12 12 14 16 16 15 14 14 15 16 15 13 13 12 12 11 11 11
-1 -1 -1 -1 1 2 4 0 -0 1 12 11 8 6 5 5 8 3 5 7 9 12 11 12 10 11 13 13 12 15 13 13 14 16 19 16 21 17 15 14 14 13 12 12 11
-1 -1 -1 -1 3 4 2 -0 0 4 20 9 9 3 5 7 7 7 3 6 10 10 11 14 13 13 14 13 11 13 11 13 14 17 18 19 21 19 17 16 15 14 13 12 11
-1 -1 -1 1 2 1 -0 -0 3 14 19 12 8 9 9 8 8 7 7 5 6 9 10 12 10 11 12 11 10 9 11 12 14 17 22 18 20 22 19 17 16 15 14 13 13
-1 -1 -0 -0 5 0 0 3 13 17 11 13 12 10 10 11 10 9 10 11 13 15 15 13 13 12 11 12 11 12 14 20 21 24 24 19 19 18 17 16 16 15 15 14 14
-1 -1 0 1 1 1 3 9 17 14 14 9 10 10 13 10 11 11 12 13 10 11 14 16 17 13 12 12 12 13 13 19 23 22 22 18 21 19 15 14 13 13 13 13 13
-1 3 3 1 0 2 6 14 15 15 10 12 11 14 13 11 11 11 12 13 11 10 14 15 15 11 11 10 9 12 15 12 17 23 22 20 19 16 15 14 13 13 12 13 13
4 5 4 1 2 3 9 13 12 9 9 10 15 12 15 13 13 13 13 10 11 9 8 12 16 12 11 10 10 12 10 15 18 26 25 22 21 19 17 15 14 13 13 13 12
4 9 4 1 1 6 13 16 11 8 8 11 12 13 13 13 13 14 13 11 9 10 9 10 13 14 11 13 14 13 14 13 14 17 21 23 21 17 15 15 14 13 12 12 12
4 14 4 3 12 8 14 10 8 9 7 9 10 11 12 12 13 13 13 11 8 8 12 10 13 16 14 11 10 11 12 12 16 18 18 18 19 14 14 14 13 13 12 13 12
7 7 3 5 18 20 16 14 10 10 9 10 12 10 9 12 14 12 12 8 8 9 11 10 14 18 16 13 11 12 12 11 13 15 18 20 20 14 14 14 14 14 13 12 11
6 11 8 5 8 15 17 16 13 8 9 8 9 9 10 12 11 12 12 9 8 8 7 8 13 15 17 15 12 14 12 11 12 16 17 17 18 16 15 14 14 14 14 13 11
7 9 12 16 9 12 12 14 15 15 10 8 10 10 12 15 13 13 11 10 8 8 9 10 15 13 12 12 12 12 12 12 13 12 15 15 16 14 14 13 13 13 12 12 12
9 9 8 9 13 13 12 16 13 11 11 11 11 10 10 14 13 15 11 11 11 9 10 9 14 13 16 12 12 14 12 12 12 12 12 12 13 10 10 12 11 10 11 12 11
5 5 8 11 12 13 11 12 12 10 9 8 9 11 11 10 9 9 8 8 9 10 11 12 13 15 17 13 14 17 14 13 12 11 11 14 11 8 9 10 10 10 11 10 10